Location: Krakow
(50.0830°N, 19.9170°E)
Time: 05:06:39
(UTC+02:00)

Tiros 1 - Pass Details

Date: 10 February 2023
Orbit: 627 x 662 km, 48.4° (Epoch: 25 March)

Event Time Altitude Azimuth Distance (km) Brightness Sun altitude
Rises 22:10:06 0° 238° (WSW) 2,903 - -48.3°
Reaches altitude 10° 22:12:28 10° 232° (SW) 1,997 - -48.6°
Maximum altitude 22:16:52 47° 159° (SSE) 830 - -49.0°
Drops below altitude 10° 22:21:18 10° 86° (E) 2,009 - -49.4°
Sets 22:23:41 0° 80° (E) 2,922 - -49.6°
